Location: Bletchingley
(51.2333°N, 0.1000°W)
Time: 23:00:59
(UTC+00:00)

ATLAS 3B R/B - Pass Details

Date: 18 September 2020
Orbit: 1016 x 1179 km, 63.8° (Epoch: 28 October)

Event Time Altitude Azimuth Distance (km) Brightness Sun altitude
Rises 19:28:56 0° 308° (NW) 3,794 7.1 -13.4°
Reaches altitude 10° 19:31:45 10° 317° (NW) 2,857 6.0 -13.8°
Maximum altitude 19:37:58 37° 24° (NNE) 1,590 3.6 -14.7°
Enters shadow 19:42:49 17° 83° (E) 2,466 4.1 -15.4°
